This demonstration page uses our WeatherBlox Daily Observations layout. Learn more.

Left ArrowRight Arrow

Hourly Observations for January 21, 2018

Temp ( °F °C ) Dew Point ( °F °C ) Humidity (%) Winds ( mph kmh ) Pressure ( in mb ) Visibility ( mi km ) Precip ( " mm )
12:53 am 00:53 Cloudy 35 1.7 30 -1.1 82 82 NNE 13 20 29.83 1010 10 16 0.00 0.00
1:53 am 01:53 Cloudy 35 1.7 30 -1.1 82 82 NNE 12 19 29.82 1010 10 16 0.00 0.00
2:53 am 02:53 Cloudy 35 1.7 30 -1.1 82 82 NNE 13 20 29.81 1010 10 16 0.00 0.00
3:53 am 03:53 Cloudy 34 1.1 30 -1.1 85 85 NNE 10 17 29.80 1009 10 16 0.00 0.00
4:53 am 04:53 Cloudy with Mist and Fog 34 1.1 31 -0.6 89 89 NNE 13 20 29.80 1009 4 6 0.00 0.00
5:53 am 05:53 Cloudy with Mist and Fog 33 0.6 31 -0.6 92 92 NNE 12 19 29.81 1010 6 10 0.00 0.00
6:34 am 06:34 Cloudy with Mist and Fog 34 1 30 -1 87 87 NNE 15 24 29.83 1010 3 4 0.00 0.00
6:53 am 06:53 Cloudy with Light Wintry Mix 33 0.6 31 -0.6 92 92 NNE 14 22 29.80 1009 2 3 0.00 0.03
7:48 am 07:48 Cloudy with Light Snow 34 1 30 -1 87 87 NNE 14 22 29.83 1010 2 2 0.00 0.03
7:53 am 07:53 Cloudy with Light Snow 33 0.6 31 -0.6 92 92 NNE 14 22 29.82 1010 1 2 0.00 0.03
8:20 am 08:20 Cloudy with Light Wintry Mix 34 1 32 0 93 93 NNE 15 24 29.83 1010 1 1 0.00 0.00
8:53 am 08:53 Cloudy with Light Snow 33 0.6 32 0 96 96 NNE 14 22 29.81 1010 1 1 0.00 0.03
9:53 am 09:53 Cloudy with Mist and Fog 34 1.1 33 0.6 97 97 N 13 20 29.84 1010 1 1 0.00 0.03
10:53 am 10:53 Windy with Snow Likely 34 1.1 33 0.6 97 97 NNE 21 33 29.80 1009 1 1 0.00 0.03
11:31 am 11:31 Cloudy with Light Rain 35 1.7 34 1.1 96 96 NNE 18 30 29.80 1009 1 2 0.00 0.03
11:53 am 11:53 Cloudy with Mist and Fog 35 1.7 34 1.1 96 96 NNE 18 30 29.77 1008 1 2 0.00 0.03
12:53 pm 12:53 Cloudy with Mist and Fog 35 1.7 34 1.1 96 96 NNE 20 31 29.75 1008 1 2 0.00 0.00
1:53 pm 13:53 Cloudy with Mist and Fog 34 1.1 33 0.6 97 97 NE 21 33 29.71 1006 1 2 0.00 0.00
2:53 pm 14:53 Cloudy with Mist and Fog 34 1.1 33 0.6 97 97 NNE 20 31 29.70 1006 1 2 0.00 0.03
3:53 pm 15:53 Cloudy with Mist and Fog 33 0.6 32 0 96 96 NE 22 35 29.71 1006 2 2 0.00 0.00
4:53 pm 16:53 Cloudy with Light Wintry Mix 33 0.6 32 0 96 96 NE 18 30 29.73 1007 1 2 0.00 0.03
5:34 pm 17:34 Cloudy with Mist and Fog 34 1 32 0 93 93 NE 21 33 29.77 1008 3 4 0.00 0.00
5:44 pm 17:44 Cloudy with Mist and Fog 34 1 32 0 93 93 NNE 23 37 29.77 1008 3 5 0.00 0.00
5:53 pm 17:53 Windy with Snow Likely 33 0.6 32 0 96 96 NE 23 37 29.70 1006 3 4 0.00 0.03
6:13 pm 18:13 Cloudy with Mist and Fog 33 0.6 32 0 96 96 NE 24 39 29.74 1007 3 5 0.00 0.03
6:53 pm 18:53 Cloudy with Mist and Fog 33 0.6 32 0 96 96 NE 23 37 29.70 1006 6 10 0.00 0.03
7:53 pm 19:53 Cloudy with Mist and Fog 33 0.6 32 0 96 96 ENE 12 19 29.72 1006 4 6 0.00 0.00
8:18 pm 20:18 Cloudy with Mist and Fog 34 1 32 0 93 93 NE 18 30 29.74 1007 3 4 0.00 0.00
8:53 pm 20:53 Cloudy with Mist and Fog 33 0.6 32 0 96 96 ENE 14 22 29.68 1005 3 4 0.00 0.03
9:44 pm 21:44 Cloudy with Mist and Fog 34 1 32 0 93 93 NE 18 30 29.71 1006 3 5 0.00 0.00
9:53 pm 21:53 Cloudy with Mist and Fog 33 0.6 32 0 96 96 NE 17 28 29.66 1004 3 5 0.00 0.00
10:34 pm 22:34 Cloudy with Mist and Fog 34 1 32 0 93 93 ENE 21 33 29.68 1005 3 4 0.00 0.00
10:46 pm 22:46 Cloudy with Mist and Fog 34 1 32 0 93 93 NE 21 33 29.68 1005 2 2 0.00 0.00
10:53 pm 22:53 Cloudy with Mist and Fog 33 0.6 32 0 96 96 NE 20 31 29.62 1003 2 2 0.00 0.00
11:53 pm 23:53 Cloudy with Mist and Fog 33 0.6 32 0 96 96 NE 20 31 29.62 1003 2 2 0.00 0.00

Powered by AerisWeather